| time (UTC) | temp F | wind direction | speed MPH | gust MPH | rain 1hr in | rain 24hr in | rain mn in | humidity % | barometer mb |
| 20260507224003 | 55 | 0 | 0.0 | 0.0 | 0.00 | 0.00 | 0.00 | 88 | 1025.2 |
| 20260507223503 | 55 | 0 | 0.0 | 0.0 | 0.00 | 0.00 | 0.00 | 87 | 1025.2 |
| 20260507223003 | 55 | 46 | 0.0 | 1.0 | 0.00 | 0.00 | 0.00 | 86 | 1025.2 |
| 20260507222503 | 55 | 46 | 0.0 | 1.0 | 0.00 | 0.00 | 0.00 | 86 | 1024.9 |
| 20260507222003 | 56 | 0 | 0.0 | 0.0 | 0.00 | 0.00 | 0.00 | 83 | 1024.8 |
| 20260507221503 | 56 | 0 | 0.0 | 0.0 | 0.00 | 0.00 | 0.00 | 83 | 1024.8 |
| 20260507221003 | 56 | 0 | 0.0 | 0.0 | 0.00 | 0.00 | 0.00 | 83 | 1024.8 |
| 20260507220503 | 56 | 72 | 0.0 | 1.0 | 0.00 | 0.00 | 0.00 | 82 | 1024.7 |
| 20260507220004 | 56 | 70 | 0.0 | 1.0 | 0.00 | 0.00 | 0.00 | 81 | 1025.0 |
| 20260507215503 | 56 | 70 | 0.0 | 1.0 | 0.00 | 0.00 | 0.00 | 81 | 1024.8 |
| 20260507215003 | 56 | 72 | 0.0 | 1.0 | 0.00 | 0.00 | 0.00 | 80 | 1024.7 |
| 20260507214503 | 56 | 0 | 0.0 | 0.0 | 0.00 | 0.00 | 0.00 | 80 | 1024.6 |
| 20260507214003 | 56 | 65 | 0.0 | 1.0 | 0.00 | 0.00 | 0.00 | 81 | 1024.5 |
| 20260507213503 | 56 | 65 | 0.0 | 1.0 | 0.00 | 0.00 | 0.00 | 82 | 1024.7 |
| 20260507213003 | 56 | 64 | 0.0 | 1.0 | 0.00 | 0.00 | 0.00 | 80 | 1024.4 |
| 20260507212503 | 56 | 67 | 0.0 | 2.0 | 0.00 | 0.00 | 0.00 | 80 | 1024.5 |
| 20260507212003 | 56 | 68 | 1.0 | 2.0 | 0.00 | 0.00 | 0.00 | 81 | 1024.6 |
| 20260507211503 | 56 | 69 | 0.0 | 2.0 | 0.00 | 0.00 | 0.00 | 80 | 1024.5 |
| 20260507211003 | 56 | 68 | 0.0 | 1.0 | 0.00 | 0.00 | 0.00 | 79 | 1024.4 |
| 20260507210503 | 56 | 66 | 0.0 | 2.0 | 0.00 | 0.00 | 0.00 | 81 | 1024.2 |
| 20260507210214 | 56 | 67 | 1.0 | 2.0 | 0.00 | 0.00 | 0.00 | 81 | 1024.5 |
| 20260507205503 | 56 | 68 | 1.0 | 2.0 | 0.00 | 0.00 | 0.00 | 81 | 1024.5 |
| 20260507205003 | 56 | 71 | 0.0 | 2.0 | 0.00 | 0.00 | 0.00 | 80 | 1024.4 |
| 20260507204503 | 56 | 52 | 0.0 | 1.0 | 0.00 | 0.00 | 0.00 | 78 | 1024.4 |
| 20260507204003 | 56 | 52 | 0.0 | 1.0 | 0.00 | 0.00 | 0.00 | 78 | 1024.3 |
| 20260507203503 | 57 | 66 | 0.0 | 1.0 | 0.00 | 0.00 | 0.00 | 78 | 1024.3 |
| 20260507203003 | 56 | 68 | 0.0 | 1.0 | 0.00 | 0.00 | 0.00 | 78 | 1024.3 |
| 20260507202503 | 56 | 69 | 0.0 | 1.0 | 0.00 | 0.00 | 0.00 | 79 | 1024.2 |
| 20260507202004 | 56 | 66 | 0.0 | 1.0 | 0.00 | 0.00 | 0.00 | 78 | 1023.9 |
| 20260507201713 | 56 | 63 | 0.0 | 1.0 | 0.00 | 0.00 | 0.00 | 78 | 1024.1 |
| 20260507201003 | 57 | 0 | 0.0 | 0.0 | 0.00 | 0.00 | 0.00 | 76 | 1024.2 |
| 20260507200503 | 57 | 66 | 0.0 | 2.0 | 0.00 | 0.00 | 0.00 | 77 | 1023.8 |
| 20260507200003 | 56 | 67 | 1.0 | 2.0 | 0.00 | 0.00 | 0.00 | 79 | 1023.9 |
| 20260507195503 | 56 | 71 | 1.0 | 2.0 | 0.00 | 0.00 | 0.00 | 79 | 1024.0 |
| 20260507195003 | 56 | 74 | 2.0 | 2.0 | 0.00 | 0.00 | 0.00 | 79 | 1023.8 |
| 20260507194503 | 56 | 72 | 1.0 | 2.0 | 0.00 | 0.00 | 0.00 | 78 | 1023.8 |
| 20260507194003 | 57 | 68 | 0.0 | 2.0 | 0.00 | 0.00 | 0.00 | 75 | 1023.6 |
| 20260507193504 | 57 | 66 | 0.0 | 1.0 | 0.00 | 0.00 | 0.00 | 76 | 1023.5 |
| 20260507193003 | 57 | 69 | 1.0 | 3.0 | 0.00 | 0.00 | 0.00 | 77 | 1023.5 |
| 20260507192503 | 57 | 71 | 1.0 | 3.0 | 0.00 | 0.00 | 0.00 | 77 | 1023.5 |
| 20260507192003 | 57 | 73 | 0.0 | 2.0 | 0.00 | 0.00 | 0.00 | 75 | 1023.3 |
| 20260507191712 | 57 | 68 | 0.0 | 2.0 | 0.00 | 0.00 | 0.00 | 75 | 1023.3 |
| 20260507191003 | 57 | 67 | 1.0 | 2.0 | 0.00 | 0.00 | 0.00 | 76 | 1022.9 |
| 20260507190504 | 57 | 67 | 1.0 | 2.0 | 0.00 | 0.00 | 0.00 | 74 | 1022.9 |
| 20260507190004 | 57 | 66 | 0.0 | 2.0 | 0.00 | 0.00 | 0.00 | 76 | 1023.1 |
| 20260507185503 | 57 | 67 | 1.0 | 2.0 | 0.00 | 0.00 | 0.00 | 78 | 1023.1 |
| 20260507185003 | 58 | 70 | 1.0 | 2.0 | 0.00 | 0.00 | 0.00 | 77 | 1022.9 |
| 20260507184504 | 58 | 73 | 1.0 | 2.0 | 0.00 | 0.00 | 0.00 | 76 | 1022.8 |
| 20260507184003 | 59 | 73 | 0.0 | 2.0 | 0.00 | 0.00 | 0.00 | 75 | 1022.6 |
| 20260507183504 | 59 | 62 | 0.0 | 1.0 | 0.00 | 0.00 | 0.00 | 73 | 1022.6 |
| 20260507183003 | 59 | 62 | 0.0 | 1.0 | 0.00 | 0.00 | 0.00 | 73 | 1022.4 |
| 20260507182503 | 59 | 62 | 0.0 | 2.0 | 0.00 | 0.00 | 0.00 | 73 | 1022.6 |
| 20260507182003 | 58 | 64 | 0.0 | 2.0 | 0.00 | 0.00 | 0.00 | 72 | 1022.5 |
| 20260507181503 | 58 | 68 | 1.0 | 2.0 | 0.00 | 0.00 | 0.00 | 72 | 1022.4 |
| 20260507181213 | 58 | 71 | 1.0 | 2.0 | 0.00 | 0.00 | 0.00 | 72 | 1022.4 |
| 20260507180714 | 58 | 72 | 1.0 | 2.0 | 0.00 | 0.00 | 0.00 | 72 | 1022.6 |
| 20260507180003 | 59 | 70 | 1.0 | 2.0 | 0.00 | 0.00 | 0.00 | 72 | 1022.1 |
| 20260507175503 | 59 | 69 | 1.0 | 2.0 | 0.00 | 0.00 | 0.00 | 72 | 1022.2 |
| 20260507175003 | 59 | 69 | 1.0 | 3.0 | 0.00 | 0.00 | 0.00 | 71 | 1022.4 |
| 20260507174503 | 59 | 69 | 1.0 | 3.0 | 0.00 | 0.00 | 0.00 | 70 | 1022.2 |
| 20260507174003 | 60 | 68 | 1.0 | 2.0 | 0.00 | 0.00 | 0.00 | 69 | 1021.9 |
| 20260507173504 | 60 | 68 | 1.0 | 2.0 | 0.00 | 0.00 | 0.00 | 68 | 1021.9 |
| 20260507173004 | 60 | 70 | 2.0 | 3.0 | 0.00 | 0.00 | 0.00 | 68 | 1021.8 |
| 20260507172503 | 61 | 74 | 2.0 | 3.0 | 0.00 | 0.00 | 0.00 | 67 | 1021.8 |
| 20260507172003 | 61 | 77 | 1.0 | 3.0 | 0.00 | 0.00 | 0.00 | 66 | 1021.7 |
| 20260507171503 | 62 | 74 | 1.0 | 3.0 | 0.00 | 0.00 | 0.00 | 66 | 1021.7 |
| 20260507171003 | 63 | 50 | 0.0 | 1.0 | 0.00 | 0.00 | 0.00 | 64 | 1021.0 |
| 20260507170503 | 63 | 283 | 0.0 | 1.0 | 0.00 | 0.00 | 0.00 | 62 | 1021.3 |
| 20260507170004 | 63 | 199 | 0.0 | 2.0 | 0.00 | 0.00 | 0.00 | 62 | 1021.3 |
| 20260507165503 | 63 | 241 | 0.0 | 2.0 | 0.00 | 0.00 | 0.00 | 60 | 1021.3 |
| 20260507165003 | 64 | 282 | 1.0 | 2.0 | 0.00 | 0.00 | 0.00 | 61 | 1021.2 |
| 20260507164503 | 64 | 224 | 1.0 | 3.0 | 0.00 | 0.00 | 0.00 | 60 | 1021.1 |
| 20260507164212 | 64 | 173 | 1.0 | 3.0 | 0.00 | 0.00 | 0.00 | 59 | 1021.2 |
| 20260507163503 | 65 | 141 | 1.0 | 3.0 | 0.00 | 0.00 | 0.00 | 48 | 1021.2 |
| 20260507163212 | 65 | 135 | 1.0 | 3.0 | 0.00 | 0.00 | 0.00 | 51 | 1021.1 |
| 20260507162503 | 65 | 77 | 1.0 | 6.0 | 0.00 | 0.00 | 0.00 | 52 | 1020.7 |
| 20260507162003 | 65 | 74 | 1.0 | 6.0 | 0.00 | 0.00 | 0.00 | 52 | 1021.0 |
| 20260507161503 | 65 | 137 | 1.0 | 3.0 | 0.00 | 0.00 | 0.00 | 56 | 1021.0 |
| 20260507161003 | 64 | 130 | 1.0 | 4.0 | 0.00 | 0.00 | 0.00 | 55 | 1021.3 |
| 20260507160503 | 64 | 147 | 2.0 | 4.0 | 0.00 | 0.00 | 0.00 | 56 | 1021.1 |
| 20260507160003 | 64 | 149 | 1.0 | 4.0 | 0.00 | 0.00 | 0.00 | 55 | 1021.1 |
| 20260507155503 | 65 | 147 | 1.0 | 4.0 | 0.00 | 0.00 | 0.00 | 54 | 1020.9 |
| 20260507155003 | 64 | 163 | 2.0 | 6.0 | 0.00 | 0.00 | 0.00 | 55 | 1020.9 |
| 20260507154503 | 64 | 157 | 2.0 | 6.0 | 0.00 | 0.00 | 0.00 | 53 | 1020.9 |
| 20260507154003 | 64 | 145 | 2.0 | 6.0 | 0.00 | 0.00 | 0.00 | 55 | 1021.0 |
| 20260507153713 | 64 | 159 | 2.0 | 6.0 | 0.00 | 0.00 | 0.00 | 56 | 1021.2 |
| 20260507153004 | 64 | 176 | 3.0 | 6.0 | 0.00 | 0.00 | 0.00 | 57 | 1021.1 |
| 20260507152503 | 64 | 156 | 2.0 | 6.0 | 0.00 | 0.00 | 0.00 | 60 | 1021.0 |
| 20260507152003 | 64 | 166 | 2.0 | 6.0 | 0.00 | 0.00 | 0.00 | 57 | 1020.9 |
| 20260507151503 | 66 | 186 | 2.0 | 4.0 | 0.00 | 0.00 | 0.00 | 56 | 1020.8 |
| 20260507151214 | 66 | 224 | 2.0 | 7.0 | 0.00 | 0.00 | 0.00 | 56 | 1020.4 |
| 20260507150503 | 67 | 240 | 2.0 | 7.0 | 0.00 | 0.00 | 0.00 | 55 | 1020.5 |
| 20260507150214 | 67 | 222 | 2.0 | 6.0 | 0.00 | 0.00 | 0.00 | 55 | 1020.5 |
| 20260507145503 | 66 | 217 | 2.0 | 6.0 | 0.00 | 0.00 | 0.00 | 55 | 1020.8 |
| 20260507145003 | 67 | 198 | 2.0 | 6.0 | 0.00 | 0.00 | 0.00 | 51 | 1020.7 |
| 20260507144503 | 67 | 158 | 2.0 | 6.0 | 0.00 | 0.00 | 0.00 | 52 | 1020.6 |
| 20260507144214 | 67 | 150 | 2.0 | 6.0 | 0.00 | 0.00 | 0.00 | 53 | 1020.7 |
| 20260507143503 | 66 | 245 | 2.0 | 6.0 | 0.00 | 0.00 | 0.00 | 53 | 1020.8 |
| 20260507143003 | 66 | 230 | 2.0 | 6.0 | 0.00 | 0.00 | 0.00 | 53 | 1020.8 |
| 20260507142713 | 66 | 217 | 2.0 | 6.0 | 0.00 | 0.00 | 0.00 | 53 | 1020.7 |
| 20260507142003 | 66 | 204 | 2.0 | 6.0 | 0.00 | 0.00 | 0.00 | 55 | 1020.5 |
| 20260507141503 | 66 | 220 | 3.0 | 7.0 | 0.00 | 0.00 | 0.00 | 57 | 1020.9 |
| 20260507141003 | 66 | 216 | 3.0 | 8.0 | 0.00 | 0.00 | 0.00 | 56 | 1021.0 |
| 20260507140503 | 66 | 185 | 3.0 | 8.0 | 0.00 | 0.00 | 0.00 | 57 | 1021.1 |
| 20260507140213 | 66 | 153 | 3.0 | 7.0 | 0.00 | 0.00 | 0.00 | 56 | 1021.1 |
| 20260507135503 | 67 | 162 | 3.0 | 6.0 | 0.00 | 0.00 | 0.00 | 55 | 1021.0 |
| 20260507135003 | 66 | 144 | 3.0 | 7.0 | 0.00 | 0.00 | 0.00 | 56 | 1021.2 |
| 20260507134503 | 66 | 198 | 3.0 | 8.0 | 0.00 | 0.00 | 0.00 | 56 | 1021.0 |
| 20260507134003 | 66 | 228 | 3.0 | 8.0 | 0.00 | 0.00 | 0.00 | 56 | 1021.1 |
| 20260507133503 | 67 | 175 | 2.0 | 4.0 | 0.00 | 0.00 | 0.00 | 57 | 1021.2 |
| 20260507133003 | 65 | 182 | 2.0 | 7.0 | 0.00 | 0.00 | 0.00 | 59 | 1021.4 |
| 20260507132712 | 66 | 125 | 2.0 | 8.0 | 0.00 | 0.00 | 0.00 | 58 | 1021.3 |
| 20260507132213 | 65 | 84 | 3.0 | 9.0 | 0.00 | 0.00 | 0.00 | 60 | 1021.5 |
| 20260507131503 | 65 | 72 | 2.0 | 7.0 | 0.00 | 0.00 | 0.00 | 61 | 1021.5 |
| 20260507131003 | 65 | 41 | 1.0 | 4.0 | 0.00 | 0.00 | 0.00 | 60 | 1021.4 |
| 20260507130503 | 64 | 108 | 2.0 | 6.0 | 0.00 | 0.00 | 0.00 | 61 | 1021.6 |
| 20260507130003 | 65 | 103 | 2.0 | 6.0 | 0.00 | 0.00 | 0.00 | 61 | 1021.8 |
| 20260507125714 | 65 | 129 | 2.0 | 4.0 | 0.00 | 0.00 | 0.00 | 61 | 1021.4 |
| 20260507125003 | 65 | 193 | 2.0 | 4.0 | 0.00 | 0.00 | 0.00 | 58 | 1021.6 |
| 20260507124503 | 65 | 226 | 2.0 | 4.0 | 0.00 | 0.00 | 0.00 | 59 | 1021.8 |
| 20260507124003 | 65 | 104 | 1.0 | 4.0 | 0.00 | 0.00 | 0.00 | 59 | 1021.6 |
| 20260507123503 | 64 | 142 | 1.0 | 4.0 | 0.00 | 0.00 | 0.00 | 58 | 1021.7 |
| 20260507123003 | 63 | 150 | 2.0 | 4.0 | 0.00 | 0.00 | 0.00 | 60 | 1022.0 |
| 20260507122503 | 64 | 198 | 2.0 | 6.0 | 0.00 | 0.00 | 0.00 | 60 | 1022.0 |
| 20260507122004 | 63 | 219 | 3.0 | 6.0 | 0.00 | 0.00 | 0.00 | 61 | 1022.1 |
| 20260507121503 | 64 | 214 | 2.0 | 6.0 | 0.00 | 0.00 | 0.00 | 62 | 1021.8 |
| 20260507121213 | 64 | 234 | 2.0 | 6.0 | 0.00 | 0.00 | 0.00 | 61 | 1021.9 |
| 20260507120503 | 63 | 182 | 2.0 | 6.0 | 0.00 | 0.00 | 0.00 | 63 | 1022.0 |
| 20260507120213 | 63 | 173 | 2.0 | 6.0 | 0.00 | 0.00 | 0.00 | 63 | 1022.0 |
| 20260507115503 | 63 | 186 | 2.0 | 6.0 | 0.00 | 0.00 | 0.00 | 63 | 1022.2 |
| 20260507115003 | 62 | 179 | 2.0 | 6.0 | 0.00 | 0.00 | 0.00 | 65 | 1022.3 |
| 20260507114503 | 62 | 239 | 2.0 | 7.0 | 0.00 | 0.00 | 0.00 | 64 | 1022.5 |
| 20260507114003 | 62 | 225 | 2.0 | 7.0 | 0.00 | 0.00 | 0.00 | 63 | 1022.4 |
| 20260507113503 | 62 | 183 | 1.0 | 4.0 | 0.00 | 0.00 | 0.00 | 63 | 1022.3 |
| 20260507113003 | 62 | 194 | 1.0 | 4.0 | 0.00 | 0.00 | 0.00 | 63 | 1022.2 |
| 20260507112503 | 62 | 200 | 1.0 | 3.0 | 0.00 | 0.00 | 0.00 | 65 | 1022.6 |
| 20260507112003 | 62 | 174 | 1.0 | 6.0 | 0.00 | 0.00 | 0.00 | 64 | 1022.7 |
| 20260507111504 | 61 | 231 | 2.0 | 6.0 | 0.00 | 0.00 | 0.00 | 66 | 1022.7 |
| 20260507111003 | 61 | 216 | 2.0 | 6.0 | 0.00 | 0.00 | 0.00 | 67 | 1022.8 |
| 20260507110503 | 61 | 155 | 1.0 | 6.0 | 0.00 | 0.00 | 0.00 | 67 | 1022.8 |
| 20260507110214 | 62 | 133 | 1.0 | 3.0 | 0.00 | 0.00 | 0.00 | 67 | 1023.1 |
| 20260507105503 | 61 | 123 | 2.0 | 4.0 | 0.00 | 0.00 | 0.00 | 66 | 1023.0 |
| 20260507105003 | 61 | 125 | 2.0 | 4.0 | 0.00 | 0.00 | 0.00 | 68 | 1023.2 |
| 20260507104713 | 61 | 126 | 2.0 | 7.0 | 0.00 | 0.00 | 0.00 | 68 | 1023.1 |
| 20260507104214 | 60 | 135 | 2.0 | 7.0 | 0.00 | 0.00 | 0.00 | 69 | 1023.1 |
| 20260507103503 | 60 | 137 | 2.0 | 4.0 | 0.00 | 0.00 | 0.00 | 67 | 1023.1 |
| 20260507103003 | 61 | 165 | 2.0 | 7.0 | 0.00 | 0.00 | 0.00 | 68 | 1022.9 |
| 20260507102503 | 60 | 147 | 2.0 | 7.0 | 0.00 | 0.00 | 0.00 | 68 | 1023.0 |
| 20260507102003 | 61 | 146 | 3.0 | 8.0 | 0.00 | 0.00 | 0.00 | 67 | 1022.9 |
| 20260507101503 | 62 | 173 | 3.0 | 8.0 | 0.00 | 0.00 | 0.00 | 67 | 1023.0 |
| 20260507101003 | 62 | 204 | 2.0 | 8.0 | 0.00 | 0.00 | 0.00 | 66 | 1022.7 |
| 20260507100503 | 60 | 168 | 3.0 | 8.0 | 0.00 | 0.00 | 0.00 | 69 | 1023.1 |
| 20260507100003 | 60 | 170 | 3.0 | 11.0 | 0.00 | 0.00 | 0.00 | 69 | 1023.1 |
| 20260507095713 | 61 | 187 | 3.0 | 11.0 | 0.00 | 0.00 | 0.00 | 69 | 1023.1 |
| 20260507095214 | 61 | 211 | 3.0 | 13.0 | 0.00 | 0.00 | 0.00 | 69 | 1022.9 |
| 20260507094503 | 60 | 160 | 2.0 | 9.0 | 0.00 | 0.00 | 0.00 | 70 | 1023.1 |
| 20260507094003 | 60 | 166 | 2.0 | 7.0 | 0.00 | 0.00 | 0.00 | 70 | 1023.2 |
| 20260507093503 | 61 | 116 | 2.0 | 4.0 | 0.00 | 0.00 | 0.00 | 68 | 1022.9 |
| 20260507093004 | 62 | 97 | 2.0 | 8.0 | 0.00 | 0.00 | 0.00 | 66 | 1022.6 |
| 20260507092713 | 62 | 114 | 2.0 | 8.0 | 0.00 | 0.00 | 0.00 | 69 | 1022.7 |
| 20260507092003 | 61 | 130 | 2.0 | 4.0 | 0.00 | 0.00 | 0.00 | 71 | 1022.6 |
| 20260507091503 | 61 | 135 | 2.0 | 4.0 | 0.00 | 0.00 | 0.00 | 68 | 1022.8 |
| 20260507091214 | 60 | 144 | 2.0 | 6.0 | 0.00 | 0.00 | 0.00 | 70 | 1023.0 |
| 20260507090503 | 61 | 129 | 1.0 | 6.0 | 0.00 | 0.00 | 0.00 | 69 | 1022.7 |
| 20260507090004 | 62 | 108 | 1.0 | 3.0 | 0.00 | 0.00 | 0.00 | 67 | 1022.8 |
| 20260507085503 | 61 | 130 | 1.0 | 3.0 | 0.00 | 0.00 | 0.00 | 69 | 1022.7 |
| 20260507085213 | 61 | 125 | 0.0 | 3.0 | 0.00 | 0.00 | 0.00 | 67 | 1022.8 |
| 20260507084503 | 59 | 123 | 0.0 | 2.0 | 0.00 | 0.00 | 0.00 | 70 | 1023.1 |
| 20260507084003 | 59 | 129 | 1.0 | 3.0 | 0.00 | 0.00 | 0.00 | 71 | 1023.0 |
| 20260507083503 | 59 | 137 | 1.0 | 3.0 | 0.00 | 0.00 | 0.00 | 72 | 1023.1 |
| 20260507083004 | 60 | 51 | 0.0 | 1.0 | 0.00 | 0.00 | 0.00 | 70 | 1022.7 |
| 20260507082503 | 60 | 68 | 0.0 | 2.0 | 0.00 | 0.00 | 0.00 | 69 | 1022.8 |
| 20260507082003 | 58 | 68 | 1.0 | 2.0 | 0.00 | 0.00 | 0.00 | 74 | 1023.3 |
| 20260507081503 | 56 | 70 | 1.0 | 3.0 | 0.00 | 0.00 | 0.00 | 79 | 1023.8 |
| 20260507081213 | 55 | 71 | 1.0 | 3.0 | 0.00 | 0.00 | 0.00 | 79 | 1023.6 |
| 20260507080714 | 56 | 73 | 1.0 | 2.0 | 0.00 | 0.00 | 0.00 | 76 | 1023.5 |
| 20260507080004 | 52 | 70 | 1.0 | 2.0 | 0.00 | 0.00 | 0.00 | 81 | 1024.1 |
| 20260507075503 | 51 | 72 | 1.0 | 2.0 | 0.00 | 0.00 | 0.00 | 82 | 1024.4 |
| 20260507075003 | 51 | 74 | 1.0 | 2.0 | 0.00 | 0.00 | 0.00 | 81 | 1024.2 |
| 20260507074503 | 51 | 75 | 0.0 | 2.0 | 0.00 | 0.00 | 0.00 | 84 | 1024.5 |
| 20260507074003 | 50 | 81 | 0.0 | 2.0 | 0.00 | 0.00 | 0.00 | 81 | 1024.5 |
| 20260507073503 | 50 | 94 | 0.0 | 1.0 | 0.00 | 0.00 | 0.00 | 83 | 1024.4 |
| 20260507073003 | 50 | 79 | 0.0 | 1.0 | 0.00 | 0.00 | 0.00 | 82 | 1024.6 |
| 20260507072503 | 50 | 77 | 0.0 | 2.0 | 0.00 | 0.00 | 0.00 | 81 | 1024.6 |
| 20260507072003 | 50 | 80 | 0.0 | 2.0 | 0.00 | 0.00 | 0.00 | 80 | 1024.6 |
| 20260507071504 | 50 | 0 | 0.0 | 0.0 | 0.00 | 0.00 | 0.00 | 78 | 1024.4 |
| 20260507071003 | 50 | 0 | 0.0 | 0.0 | 0.00 | 0.00 | 0.00 | 78 | 1024.6 |
| 20260507070503 | 50 | 0 | 0.0 | 0.0 | 0.00 | 0.00 | 0.00 | 77 | 1024.5 |
| 20260507070007 | 50 | 292 | 0.0 | 1.0 | 0.00 | 0.00 | 0.00 | 78 | 1024.4 |
| 20260507065503 | 50 | 293 | 0.0 | 1.0 | 0.00 | 0.00 | 0.00 | 79 | 1024.5 |
| 20260507065213 | 50 | 297 | 0.0 | 1.0 | 0.00 | 0.00 | 0.00 | 80 | 1024.4 |
| 20260507064503 | 49 | 73 | 1.0 | 2.0 | 0.00 | 0.00 | 0.00 | 83 | 1024.8 |
| 20260507064213 | 49 | 73 | 1.0 | 2.0 | 0.00 | 0.00 | 0.00 | 84 | 1024.9 |
| 20260507063503 | 50 | 69 | 0.0 | 2.0 | 0.00 | 0.00 | 0.00 | 83 | 1024.4 |
| 20260507063003 | 50 | 45 | 0.0 | 1.0 | 0.00 | 0.00 | 0.00 | 81 | 1024.2 |
| 20260507062503 | 49 | 303 | 0.0 | 1.0 | 0.00 | 0.00 | 0.00 | 82 | 1024.4 |
| 20260507062003 | 49 | 309 | 0.0 | 1.0 | 0.00 | 0.00 | 0.00 | 79 | 1024.4 |
| 20260507061503 | 50 | 58 | 0.0 | 1.0 | 0.00 | 0.00 | 0.00 | 79 | 1024.3 |
| 20260507061212 | 50 | 58 | 0.0 | 1.0 | 0.00 | 0.00 | 0.00 | 79 | 1024.3 |
| 20260507060503 | 53 | 49 | 0.0 | 1.0 | 0.00 | 0.00 | 0.00 | 76 | 1023.8 |
| 20260507060003 | 52 | 324 | 0.0 | 1.0 | 0.00 | 0.01 | 0.00 | 76 | 1023.9 |
| 20260507055713 | 51 | 318 | 0.0 | 1.0 | 0.00 | 0.01 | 0.00 | 76 | 1024.4 |
| 20260507055004 | 49 | 322 | 0.0 | 1.0 | 0.00 | 0.02 | 0.00 | 79 | 1024.1 |
| 20260507054503 | 50 | 37 | 0.0 | 1.0 | 0.00 | 0.02 | 0.00 | 76 | 1024.1 |
| 20260507054003 | 49 | 37 | 0.0 | 1.0 | 0.00 | 0.02 | 0.00 | 80 | 1024.2 |
| 20260507053713 | 48 | 40 | 0.0 | 1.0 | 0.00 | 0.02 | 0.00 | 80 | 1024.5 |
| 20260507053004 | 46 | 61 | 0.0 | 1.0 | 0.00 | 0.03 | 0.00 | 83 | 1024.5 |
| 20260507052503 | 46 | 291 | 0.0 | 2.0 | 0.00 | 0.03 | 0.00 | 85 | 1024.6 |
| 20260507052003 | 46 | 295 | 0.0 | 2.0 | 0.00 | 0.03 | 0.00 | 86 | 1024.6 |
| 20260507051503 | 46 | 309 | 0.0 | 1.0 | 0.00 | 0.03 | 0.00 | 85 | 1024.5 |
| 20260507051003 | 46 | 309 | 0.0 | 1.0 | 0.00 | 0.04 | 0.00 | 85 | 1024.4 |
| 20260507050503 | 46 | 298 | 0.0 | 1.0 | 0.00 | 0.04 | 0.00 | 85 | 1023.9 |
| 20260507050003 | 46 | 306 | 0.0 | 1.0 | 0.00 | 0.04 | 0.00 | 86 | 1024.4 |
| 20260507045503 | 45 | 307 | 0.0 | 1.0 | 0.00 | 0.04 | 0.00 | 88 | 1024.4 |
| 20260507045003 | 45 | 311 | 0.0 | 2.0 | 0.00 | 0.05 | 0.00 | 90 | 1024.5 |
| 20260507044503 | 44 | 310 | 1.0 | 2.0 | 0.00 | 0.06 | 0.00 | 90 | 1024.3 |
| 20260507044214 | 45 | 308 | 0.0 | 2.0 | 0.00 | 0.08 | 0.00 | 90 | 1024.4 |
| 20260507043503 | 45 | 0 | 0.0 | 0.0 | 0.00 | 0.13 | 0.00 | 92 | 1024.0 |
| 20260507043003 | 44 | 0 | 0.0 | 0.0 | 0.00 | 0.19 | 0.00 | 93 | 1024.1 |
| 20260507042503 | 44 | 291 | 0.0 | 1.0 | 0.00 | 0.24 | 0.00 | 93 | 1024.1 |
| 20260507042003 | 44 | 291 | 0.0 | 1.0 | 0.00 | 0.27 | 0.00 | 93 | 1024.1 |
| 20260507041503 | 44 | 0 | 0.0 | 0.0 | 0.00 | 0.30 | 0.00 | 92 | 1024.1 |
| 20260507041003 | 44 | 0 | 0.0 | 0.0 | 0.00 | 0.32 | 0.00 | 92 | 1024.1 |
| 20260507040503 | 44 | 0 | 0.0 | 0.0 | 0.00 | 0.33 | 0.00 | 92 | 1024.1 |
| 20260507040003 | 45 | 0 | 0.0 | 0.0 | 0.00 | 0.34 | 0.00 | 91 | 1024.0 |
| 20260507035503 | 44 | 0 | 0.0 | 0.0 | 0.00 | 0.35 | 0.00 | 91 | 1023.9 |
| 20260507035213 | 44 | 0 | 0.0 | 0.0 | 0.00 | 0.35 | 0.00 | 91 | 1024.0 |
| 20260507034503 | 44 | 0 | 0.0 | 0.0 | 0.00 | 0.37 | 0.00 | 91 | 1024.0 |
| 20260507034003 | 44 | 0 | 0.0 | 0.0 | 0.00 | 0.38 | 0.00 | 93 | 1024.0 |
| 20260507033503 | 45 | 0 | 0.0 | 0.0 | 0.00 | 0.40 | 0.00 | 93 | 1023.8 |
| 20260507033003 | 45 | 0 | 0.0 | 0.0 | 0.00 | 0.42 | 0.00 | 93 | 1023.8 |
| 20260507032503 | 45 | 0 | 0.0 | 0.0 | 0.00 | 0.42 | 0.00 | 93 | 1023.8 |
| 20260507032003 | 45 | 304 | 0.0 | 1.0 | 0.00 | 0.43 | 0.00 | 93 | 1023.8 |
| 20260507031503 | 45 | 304 | 0.0 | 1.0 | 0.00 | 0.43 | 0.00 | 93 | 1023.7 |
| 20260507031003 | 45 | 0 | 0.0 | 0.0 | 0.00 | 0.43 | 0.00 | 93 | 1023.7 |
| 20260507030503 | 45 | 74 | 0.0 | 1.0 | 0.00 | 0.43 | 0.00 | 93 | 1023.7 |
| 20260507030003 | 45 | 74 | 0.0 | 1.0 | 0.00 | 0.43 | 0.00 | 92 | 1023.8 |
| 20260507025503 | 46 | 73 | 0.0 | 1.0 | 0.00 | 0.43 | 0.00 | 92 | 1023.8 |
| 20260507025213 | 46 | 70 | 0.0 | 1.0 | 0.00 | 0.43 | 0.00 | 91 | 1023.4 |
| 20260507024503 | 46 | 310 | 0.0 | 1.0 | 0.00 | 0.43 | 0.00 | 89 | 1023.4 |
| 20260507024003 | 46 | 321 | 0.0 | 1.0 | 0.00 | 0.43 | 0.00 | 89 | 1023.6 |
| 20260507023503 | 46 | 25 | 0.0 | 1.0 | 0.00 | 0.43 | 0.00 | 90 | 1023.7 |
| 20260507023003 | 46 | 53 | 0.0 | 1.0 | 0.00 | 0.43 | 0.00 | 91 | 1023.6 |
| 20260507022503 | 46 | 39 | 0.0 | 1.0 | 0.00 | 0.43 | 0.00 | 88 | 1023.4 |
| 20260507022003 | 47 | 306 | 0.0 | 1.0 | 0.00 | 0.43 | 0.00 | 86 | 1023.6 |
| 20260507021503 | 47 | 302 | 0.0 | 1.0 | 0.00 | 0.43 | 0.00 | 87 | 1023.7 |
| 20260507021003 | 47 | 0 | 0.0 | 0.0 | 0.00 | 0.43 | 0.00 | 87 | 1023.6 |
| 20260507020503 | 47 | 0 | 0.0 | 0.0 | 0.00 | 0.43 | 0.00 | 87 | 1023.5 |
| 20260507020003 | 47 | 0 | 0.0 | 0.0 | 0.00 | 0.43 | 0.00 | 88 | 1023.7 |
| 20260507015503 | 47 | 0 | 0.0 | 0.0 | 0.00 | 0.43 | 0.00 | 88 | 1023.4 |
| 20260507015003 | 46 | 303 | 0.0 | 1.0 | 0.00 | 0.43 | 0.00 | 88 | 1023.5 |
| 20260507014503 | 46 | 301 | 1.0 | 2.0 | 0.00 | 0.43 | 0.00 | 89 | 1023.4 |
| 20260507014003 | 46 | 299 | 1.0 | 2.0 | 0.00 | 0.43 | 0.00 | 90 | 1023.6 |
| 20260507013503 | 46 | 296 | 0.0 | 1.0 | 0.00 | 0.43 | 0.00 | 91 | 1023.5 |
| 20260507013003 | 46 | 0 | 0.0 | 0.0 | 0.00 | 0.43 | 0.00 | 91 | 1023.3 |
| 20260507012503 | 46 | 0 | 0.0 | 0.0 | 0.00 | 0.43 | 0.00 | 92 | 1023.5 |
| 20260507012003 | 46 | 0 | 0.0 | 0.0 | 0.00 | 0.43 | 0.00 | 92 | 1023.3 |
| 20260507011503 | 46 | 55 | 0.0 | 1.0 | 0.00 | 0.43 | 0.00 | 92 | 1023.1 |
| 20260507011003 | 46 | 55 | 0.0 | 1.0 | 0.00 | 0.43 | 0.00 | 92 | 1023.3 |
| 20260507010714 | 46 | 57 | 0.0 | 1.0 | 0.00 | 0.43 | 0.00 | 91 | 1023.1 |
| 20260507010003 | 46 | 60 | 1.0 | 2.0 | 0.00 | 0.43 | 0.00 | 93 | 1023.4 |
| 20260507005503 | 46 | 62 | 0.0 | 2.0 | 0.00 | 0.43 | 0.00 | 92 | 1023.4 |
| 20260507005003 | 46 | 304 | 0.0 | 1.0 | 0.00 | 0.43 | 0.00 | 90 | 1023.2 |
| 20260507004503 | 46 | 295 | 1.0 | 1.0 | 0.00 | 0.43 | 0.00 | 88 | 1023.2 |
| 20260507004003 | 46 | 293 | 1.0 | 1.0 | 0.00 | 0.43 | 0.00 | 91 | 1023.3 |
| 20260507003713 | 46 | 295 | 0.0 | 1.0 | 0.00 | 0.43 | 0.00 | 91 | 1023.2 |
| 20260507003214 | 46 | 299 | 0.0 | 1.0 | 0.00 | 0.43 | 0.00 | 92 | 1023.0 |
| 20260507002503 | 47 | 40 | 0.0 | 1.0 | 0.00 | 0.43 | 0.00 | 92 | 1023.2 |
| 20260507002003 | 47 | 72 | 0.0 | 1.0 | 0.00 | 0.44 | 0.00 | 92 | 1023.0 |
| 20260507001503 | 47 | 0 | 0.0 | 0.0 | 0.00 | 0.44 | 0.00 | 91 | 1022.9 |
| 20260507001003 | 47 | 55 | 0.0 | 1.0 | 0.00 | 0.44 | 0.00 | 92 | 1022.8 |
| 20260507000503 | 47 | 58 | 0.0 | 1.0 | 0.00 | 0.45 | 0.00 | 92 | 1023.0 |
| 20260507000003 | 47 | 66 | 0.0 | 1.0 | 0.00 | 0.45 | 0.00 | 91 | 1022.6 |
| 20260506235713 | 47 | 0 | 0.0 | 0.0 | 0.00 | 0.45 | 0.00 | 90 | 1022.8 |
| 20260506235003 | 47 | 295 | 0.0 | 1.0 | 0.00 | 0.45 | 0.00 | 89 | 1022.8 |
| 20260506234503 | 47 | 353 | 0.0 | 1.0 | 0.00 | 0.45 | 0.00 | 90 | 1022.7 |
| 20260506234003 | 47 | 55 | 0.0 | 1.0 | 0.00 | 0.45 | 0.00 | 90 | 1022.5 |
| 20260506233503 | 47 | 349 | 0.0 | 1.0 | 0.00 | 0.45 | 0.00 | 91 | 1022.6 |
| 20260506233003 | 47 | 0 | 0.0 | 0.0 | 0.00 | 0.45 | 0.00 | 92 | 1022.7 |
| 20260506232503 | 47 | 303 | 0.0 | 1.0 | 0.00 | 0.45 | 0.00 | 92 | 1022.7 |
| 20260506232214 | 47 | 303 | 0.0 | 1.0 | 0.00 | 0.45 | 0.00 | 92 | 1022.6 |
| 20260506231503 | 47 | 341 | 0.0 | 1.0 | 0.00 | 0.45 | 0.00 | 92 | 1022.6 |
| 20260506231214 | 48 | 26 | 0.0 | 1.0 | 0.00 | 0.45 | 0.00 | 92 | 1022.7 |
| 20260506230503 | 48 | 54 | 0.0 | 1.0 | 0.00 | 0.45 | 0.00 | 91 | 1022.5 |
| 20260506230003 | 48 | 57 | 0.0 | 1.0 | 0.00 | 0.45 | 0.00 | 91 | 1022.5 |
| 20260506225713 | 48 | 57 | 0.0 | 1.0 | 0.00 | 0.45 | 0.00 | 92 | 1022.4 |
| 20260506225003 | 48 | 294 | 0.0 | 1.0 | 0.00 | 0.45 | 0.00 | 91 | 1022.6 |
| 20260506224503 | 48 | 352 | 0.0 | 1.0 | 0.00 | 0.45 | 0.00 | 92 | 1022.4 |